Location: Rancho Del Sol Observatory
(38.7214°N, 120.6350°W)
Time: 16:40:10
(UTC-08:00)

Courier 1B Rocket - Pass Details

Date: 31 January 2020
Orbit: 920 x 1202 km, 28.2° (Epoch: 20 February)

Event Time Altitude Azimuth Distance (km) Brightness Sun altitude
Rises 09:21:21 0° 238° (WSW) 4,086 8.1 20.6°
Reaches altitude 10° 09:24:33 10° 229° (SW) 3,110 7.7 21.0°
Maximum altitude 09:31:13 32° 169° (S) 1,863 7.7 21.9°
Drops below altitude 10° 09:37:39 10° 109° (ESE) 2,987 8.7 22.8°
Sets 09:40:39 0° 100° (E) 3,903 8.9 23.2°
